Retour au catalogue

HARBINGER

ActifScienceSSO
NORAD 68440·PAYLOAD·🇺🇸 United States
Ce nom de satellite n'a pas encore été confirmé par des sources officielles.

Lancé Mar 30, 2026 depuis Vandenberg Space Force Base

Loading…

Prochains Passages (prochaines 24 heures)

TLE

FraisSource: Space-Track

Époque: Sep 14, 2026, 07:33 UTC

1 68440U 26067AA  26257.31516055  .00014722  00000-0  61804-3 0  9999
2 68440  97.4588 215.0516 0004826  99.4598 260.7185 15.23553049 25507

Suivez HARBINGER en temps réel avec AllMySat

Download on the App Store